Torna al catalogo

STARLINK-31714

AttivoComunicazioniVLEO
NORAD 59387·PAYLOAD·🇺🇸 United States

Lanciato Apr 2, 2024 da Vandenberg Space Force Base

Loading…

Prossimi Passaggi (prossime 24 ore)

TLE

AggiornatoSource: CelesTrak SupGP

Epoca: Sep 14, 2026, 21:19 UTC

1 59387C 24062P   26257.88868056 -.00023671  00000+0 -69959-3 0  2575
2 59387  53.1581  93.6160 0001240  84.1468 299.4945 15.34391989    15

Traccia STARLINK-31714 in tempo reale con AllMySat

Download on the App Store